Location: Austin
(30.3000°N, 97.7500°W)
Time: 23:47:54
(UTC-06:00)

SPOT 1/Viking Rocket - Pass Details

Date: 04 November 2025
Orbit: 773 x 788 km, 98.2° (Epoch: 15 November)

Event Time Altitude Azimuth Distance (km) Brightness Sun altitude
Rises 18:09:56 0° 139° (SE) 3,238 6.5 -6.9°
Reaches altitude 10° 18:12:31 10° 128° (SE) 2,316 5.6 -7.4°
Maximum altitude 18:16:48 28° 71° (ENE) 1,433 4.4 -8.3°
Drops below altitude 10° 18:21:07 10° 14° (NNE) 2,333 5.8 -9.2°
Sets 18:23:43 0° 3° (N) 3,267 6.6 -9.8°
